Weather History for Park Rapids, MN

Change the Weather History Date:

Monday, September 16, 2013

  Actual Average Record
Temperature  
Mean Temperature 50 °F -  
Max Temperature 64 °F 68 °F 85 °F (1979)
Min Temperature 35 °F 44 °F 32 °F (1970)
Degree Days  
Heating Degree Days 16    
Moisture  
Dew Point 39 °F    
Average Humidity 83    
Maximum Humidity 100    
Minimum Humidity 38    
Precipitation  
Precipitation 0.00 in - - ()
Sea Level Pressure  
Sea Level Pressure 30.35 in    
Wind  
Wind Speed 3 mph (SSE)    
Max Wind Speed 14 mph    
Max Gust Speed 18 mph    
Visibility 6 miles    
Events Fog    
Averages and records for this station are not official NWS values.
T = Trace of Precipitation, MM = Missing Value Source: NWS Daily Summary

Daily Weather History Graph

Daily Weather History Graph

Search for Another Location

Airport:

Trip Planner

Search our weather history database for the weather conditions in past years. The results will help you decide how hot, cold, wet, or windy it might be!

Date:

Astronomy

Sep. 16, 2013 Rise Set
Actual Time 6:59 AM CDT 7:29 PM CDT
Civil Twilight 6:29 AM CDT 7:59 PM CDT
Nautical Twilight 5:52 AM CDT 8:35 PM CDT
Astronomical Twilight 5:15 AM CDT 9:13 PM CDT
Moon 5:46 PM CDT (9/16) 3:37 AM CDT (9/16)
Length of Visible Light 13h 30m
Length of Day
12h 29m
Waxing Gibbous, 90% of the Moon is Illuminated
Sep 16
Waxing Gibbous
Sep 19
Full
Sep 26
Last Quarter
Oct 4
New
Oct 11
First Quarter

Hourly Weather History & Observations

Time (CDT) Temp. Windchill Dew Point Humidity Pressure Visibility Wind Dir Wind Speed Gust Speed Precip Events Conditions
12:53 AM 42.1 °F - 41.0 °F 96% 30.38 in 10.0 mi Calm Calm - N/A   Clear
1:53 AM 39.9 °F - 37.9 °F 93% 30.38 in 10.0 mi Calm Calm - N/A   Clear
2:53 AM 37.9 °F - 37.9 °F 100% 30.38 in 10.0 mi Calm Calm - N/A   Clear
3:53 AM 37.9 °F - 37.0 °F 97% 30.38 in 10.0 mi Calm Calm - N/A   Clear
4:16 AM 37.4 °F - 35.6 °F 93% 30.35 in 10.0 mi Calm Calm - N/A   Scattered Clouds
4:27 AM 37.4 °F - 35.6 °F 93% 30.36 in 10.0 mi Calm Calm - N/A   Mostly Cloudy
4:53 AM 36.0 °F - 35.1 °F 97% 30.39 in 2.0 mi Calm Calm - N/A   Overcast
5:02 AM 35.6 °F - 35.6 °F 100% 30.37 in 5.0 mi Calm Calm - N/A   Overcast
5:04 AM 35.6 °F - 35.6 °F 100% 30.37 in 1.5 mi Calm Calm - N/A   Overcast
5:12 AM 35.6 °F - 35.6 °F 100% 30.37 in 0.5 mi Calm Calm - N/A Fog Fog
5:26 AM 35.6 °F - 35.6 °F 100% 30.37 in 1.5 mi Calm Calm - N/A   Overcast
5:43 AM 35.6 °F - 35.6 °F 100% 30.37 in 0.5 mi Calm Calm - N/A Fog Fog
5:53 AM 35.1 °F - 35.1 °F 100% 30.40 in 0.5 mi Calm Calm - N/A Fog Fog
6:08 AM 35.6 °F - 35.6 °F 100% 30.37 in 1.2 mi Calm Calm - N/A   Overcast
6:18 AM 35.6 °F - 35.6 °F 100% 30.37 in 0.5 mi Calm Calm - N/A Fog Fog
6:33 AM 35.6 °F - 35.6 °F 100% 30.37 in 1.2 mi Calm Calm - N/A   Overcast
6:42 AM 35.6 °F - 35.6 °F 100% 30.37 in 0.5 mi Calm Calm - N/A Fog Fog
6:53 AM 36.0 °F - 36.0 °F 100% 30.41 in 0.5 mi Calm Calm - N/A Fog Fog
7:25 AM 35.6 °F - 35.6 °F 100% 30.37 in 0.2 mi Calm Calm - N/A Fog Fog
7:34 AM 35.6 °F - 35.6 °F 100% 30.37 in 0.8 mi Calm Calm - N/A   Mist
7:53 AM 37.0 °F 34.5 °F 37.0 °F 100% 30.41 in 0.8 mi SSE 3.5 mph - N/A   Overcast
8:06 AM 39.2 °F 37.0 °F 39.2 °F 100% 30.37 in 0.2 mi SSE 3.5 mph - N/A Fog Fog
8:40 AM 42.8 °F 41.1 °F 42.8 °F 100% 30.38 in 0.8 mi South 3.5 mph - N/A   Mist
8:51 AM 44.6 °F 42.2 °F 44.6 °F 100% 30.37 in 1.8 mi South 4.6 mph - N/A   Mostly Cloudy
8:53 AM 45.0 °F 42.6 °F 45.0 °F 100% 30.40 in 3.0 mi South 4.6 mph - N/A   Mostly Cloudy
9:05 AM 46.4 °F 43.5 °F 44.6 °F 93% 30.37 in 10.0 mi South 5.8 mph - N/A   Scattered Clouds
9:53 AM 51.1 °F - 45.0 °F 80% 30.41 in 10.0 mi South 10.4 mph - N/A   Clear
10:53 AM 55.0 °F - 45.0 °F 69% 30.41 in 10.0 mi South 12.7 mph - N/A   Clear
11:53 AM 57.9 °F - 44.1 °F 60% 30.39 in 10.0 mi SE 11.5 mph - N/A   Partly Cloudy
12:53 PM 60.1 °F - 44.1 °F 55% 30.38 in 10.0 mi SSE 9.2 mph - N/A   Clear
1:53 PM 62.1 °F - 43.0 °F 50% 30.36 in 10.0 mi SSW 8.1 mph - N/A   Clear
2:53 PM 63.0 °F - 41.0 °F 45% 30.33 in 10.0 mi SE 11.5 mph 18.4 mph N/A   Clear
3:53 PM 64.0 °F - 39.0 °F 40% 30.31 in 10.0 mi SSE 9.2 mph 18.4 mph N/A   Clear
4:53 PM 64.0 °F - 37.9 °F 38% 30.28 in 10.0 mi South 12.7 mph - N/A   Clear
5:53 PM 63.0 °F - 37.9 °F 40% 30.26 in 10.0 mi SSE 12.7 mph - N/A   Clear
6:53 PM 61.0 °F - 39.0 °F 44% 30.25 in 10.0 mi SSE 10.4 mph - N/A   Clear
7:53 PM 55.9 °F - 39.0 °F 53% 30.25 in 10.0 mi SE 8.1 mph - N/A   Clear
8:53 PM 52.0 °F - 39.0 °F 61% 30.23 in 10.0 mi SE 8.1 mph - N/A   Clear
9:53 PM 48.9 °F - 39.0 °F 69% 30.22 in 10.0 mi SSE 9.2 mph - N/A   Clear
10:53 PM 48.9 °F - 39.9 °F 71% 30.21 in 10.0 mi SSE 11.5 mph - N/A   Clear
11:53 PM 50.0 °F - 41.0 °F 71% 30.20 in 10.0 mi SSE 13.8 mph - N/A   Clear